Temp
61 61 60 60 60 60 60 59 59 60 60 61 61 61 61 61 60 68 70 71 72 70 72 74 76 73 73 70 70 67 62 56 56 57 61 68 65 72 76 73 76 79 80 84 82
61 60 60 59 59 59 59 59 59 60 60 60 60 60 60 60 64 72 73 72 71 71 74 73 71 72 69 67 68 66 60 56 62 63 62 65 65 68 68 70 72 76 82 85 81
61 60 60 59 59 59 59 59 59 59 60 60 60 60 60 61 70 71 73 72 71 71 72 71 71 70 65 67 64 62 59 61 64 65 64 64 65 69 67 65 71 72 78 82 81
60 60 59 59 59 59 59 59 59 59 59 59 59 61 61 63 58 75 74 72 72 73 75 73 71 66 62 61 63 58 62 62 64 67 65 63 68 66 68 70 77 77 79 79 81
60 60 59 58 59 59 58 58 58 58 58 59 60 61 64 69 69 76 74 73 73 73 72 70 67 64 59 61 61 58 61 65 67 66 65 66 63 65 68 75 78 77 76 77 80
59 59 59 58 58 58 58 58 57 57 58 59 60 61 67 63 77 76 75 73 73 72 72 71 69 68 63 61 59 63 62 63 63 64 64 60 64 62 68 74 73 73 74 77 78
59 59 59 58 57 58 58 57 57 57 58 59 62 64 68 69 77 76 74 74 74 73 70 73 72 68 66 61 64 63 56 61 62 63 63 62 59 59 70 71 69 70 73 74 76
59 58 58 58 57 58 58 57 57 58 59 60 62 65 67 76 75 75 73 74 73 74 72 74 73 68 65 65 62 58 55 53 63 63 64 63 53 64 70 67 67 70 72 73 76
59 58 58 58 58 58 57 56 59 59 60 62 65 66 67 74 74 78 76 74 74 73 72 74 71 64 63 58 55 55 48 52 56 63 62 60 55 65 70 68 66 69 71 72 74
58 57 57 57 57 57 56 57 60 62 64 65 66 66 74 69 74 77 76 72 70 70 69 66 64 60 59 55 45 49 50 53 52 60 61 57 56 63 67 67 66 68 70 71 72
58 57 57 57 57 56 59 65 68 67 68 64 64 64 68 74 76 75 76 72 70 66 59 61 56 53 57 55 54 51 49 48 54 60 56 55 55 60 65 66 65 67 69 69 71
57 57 57 57 56 56 62 67 66 67 60 66 65 65 69 71 65 71 77 66 63 57 61 57 51 58 57 56 53 52 48 48 54 58 55 54 54 60 63 64 66 66 68 70 71
56 56 57 56 56 62 67 68 70 69 60 64 68 68 70 70 65 66 71 66 61 56 56 49 55 58 56 53 50 51 47 48 47 53 56 53 50 55 63 65 66 68 69 71 71
56 56 56 54 63 64 69 69 68 69 57 59 64 69 71 68 62 72 72 66 62 54 54 52 57 54 53 50 52 44 53 50 48 46 40 52 38 52 57 59 63 66 68 69 70
55 56 56 55 65 69 69 67 68 68 42 61 64 75 70 65 65 66 71 65 56 55 53 52 53 52 49 51 54 48 54 50 48 45 43 45 38 49 58 55 60 66 67 69 71
55 56 55 60 61 69 67 67 69 54 42 55 62 61 61 63 62 65 64 65 60 53 54 53 60 54 54 56 55 55 51 49 48 43 31 44 43 46 53 57 61 65 66 67 70
55 55 56 62 65 68 65 67 53 46 56 53 54 59 56 54 56 59 56 54 48 40 46 51 50 56 56 50 55 51 43 33 32 30 34 45 42 47 56 61 62 63 65 67 68
54 53 58 66 66 64 67 61 45 49 50 58 56 56 50 55 55 54 52 49 52 48 42 40 39 50 55 51 46 47 41 31 25 31 37 47 38 50 59 61 63 65 65 66 68
52 62 67 69 66 66 65 49 48 50 55 52 54 48 49 53 52 51 50 47 51 51 41 39 41 54 55 55 51 41 36 45 33 37 30 41 47 55 60 60 61 61 62 63 64
52 59 67 68 64 66 59 45 50 56 56 54 46 50 45 49 47 47 47 52 50 53 53 47 34 50 51 54 53 47 47 34 34 27 26 39 41 44 53 57 58 60 60 61 63
56 61 68 65 66 61 49 48 52 59 57 52 50 48 48 45 46 45 46 52 53 54 52 48 36 42 49 46 45 43 36 36 36 36 30 31 40 56 56 58 57 59 59 61 62
52 57 67 65 57 50 50 49 50 54 58 55 54 51 47 47 43 44 44 48 56 52 44 48 40 34 42 52 52 49 44 41 31 32 35 35 36 58 59 61 59 57 59 60 60
50 51 64 63 48 47 48 48 51 52 52 51 49 51 50 46 38 43 48 53 54 51 42 47 36 30 39 46 47 44 47 46 41 37 30 28 36 56 57 57 58 57 59 61 61
54 50 55 55 52 47 43 45 46 55 52 52 50 52 47 44 47 42 45 50 52 51 53 51 37 35 29 37 43 36 41 45 40 30 35 35 41 48 52 54 56 58 60 60 61
51 46 47 45 48 46 45 45 44 44 52 53 49 49 43 38 41 41 45 47 50 52 49 46 35 41 42 43 42 40 41 42 39 37 30 37 40 46 50 50 51 53 54 55 56
48 46 50 47 46 45 45 44 44 45 46 44 43 45 45 39 40 37 42 44 41 48 45 45 36 41 37 44 45 41 43 41 40 40 38 39 37 50 52 51 50 51 51 52 53
54 53 49 45 45 44 45 45 44 46 49 50 47 44 41 45 49 50 52 50 47 42 40 39 37 36 33 44 41 33 38 37 38 41 35 31 42 47 43 44 45 45 48 48 50
MSLP
1019.02 1018.67 1018.35 1018.04 1017.74 1017.44 1017.15 1016.90 1016.64 1016.38 1016.14 1015.90 1015.70 1015.40 1014.98 1014.55 1013.98 1013.51 1013.14 1013.45 1013.18 1012.79 1012.34 1012.04 1011.85 1011.94 1011.86 1012.01 1012.36 1012.62 1012.17 1011.98 1011.88 1011.83 1011.28 1011.32 1010.87 1010.15 1009.74 1009.08 1008.47 1007.98 1007.47 1007.20 1007.45
1018.90 1018.63 1018.29 1017.98 1017.66 1017.40 1017.15 1016.90 1016.64 1016.32 1016.00 1015.77 1015.61 1015.37 1015.03 1014.67 1014.12 1013.22 1013.32 1013.20 1013.15 1012.91 1012.46 1012.15 1011.93 1011.85 1012.02 1012.37 1012.58 1012.44 1012.31 1012.17 1012.34 1012.06 1011.71 1011.57 1011.19 1010.55 1009.95 1009.04 1008.45 1007.70 1007.31 1007.29 1007.52
1018.78 1018.44 1018.11 1017.85 1017.56 1017.33 1017.07 1016.81 1016.54 1016.26 1015.93 1015.69 1015.45 1015.15 1014.82 1014.58 1013.66 1013.20 1013.08 1013.14 1013.14 1013.09 1012.95 1012.78 1012.53 1012.21 1012.36 1012.69 1012.90 1012.89 1012.47 1012.52 1012.12 1012.10 1012.11 1011.56 1010.95 1010.53 1009.79 1008.83 1008.29 1007.76 1007.03 1007.02 1007.21
1018.82 1018.30 1017.97 1017.64 1017.37 1017.11 1016.89 1016.60 1016.28 1016.04 1015.81 1015.56 1015.28 1014.93 1014.59 1014.33 1013.77 1013.06 1013.05 1013.14 1013.16 1013.02 1012.68 1012.61 1012.39 1012.27 1012.57 1012.64 1013.05 1012.90 1012.67 1012.66 1012.14 1011.88 1011.65 1011.30 1010.76 1010.06 1009.43 1008.73 1008.18 1007.86 1007.43 1007.18 1006.83
1018.91 1018.35 1017.94 1017.61 1017.24 1016.91 1016.60 1016.32 1016.04 1015.80 1015.66 1015.42 1015.14 1014.80 1014.55 1013.78 1013.23 1013.00 1013.02 1013.11 1013.11 1013.02 1012.75 1012.61 1012.52 1012.68 1012.63 1012.82 1012.97 1012.77 1012.48 1012.20 1011.74 1011.39 1011.08 1010.76 1010.18 1009.50 1008.63 1008.12 1007.83 1007.60 1007.33 1006.98 1006.52
1018.87 1018.32 1017.84 1017.48 1017.13 1016.80 1016.41 1016.09 1015.93 1015.65 1015.52 1015.28 1015.01 1014.64 1014.19 1013.33 1012.93 1012.85 1012.87 1013.06 1013.10 1013.03 1012.79 1012.72 1012.57 1012.71 1012.70 1012.73 1012.73 1012.40 1012.21 1011.68 1011.27 1010.81 1010.58 1010.37 1009.54 1009.44 1008.30 1007.77 1007.65 1007.45 1007.09 1006.75 1006.40
1018.84 1018.23 1017.68 1017.27 1016.94 1016.59 1016.17 1015.80 1015.68 1015.48 1015.32 1015.19 1014.91 1014.64 1013.86 1013.31 1012.82 1012.93 1012.91 1012.76 1012.82 1012.81 1012.59 1012.67 1012.71 1012.67 1012.66 1012.40 1012.58 1012.33 1011.90 1011.17 1010.66 1010.34 1009.88 1009.83 1008.97 1008.46 1007.84 1007.74 1007.43 1007.09 1006.72 1006.37 1006.02
1018.75 1018.17 1017.52 1016.97 1016.53 1016.09 1015.75 1015.45 1015.21 1015.13 1015.12 1015.02 1014.88 1014.52 1013.42 1012.94 1012.93 1012.85 1012.79 1012.44 1012.52 1012.60 1012.62 1012.52 1012.56 1012.53 1012.57 1012.57 1012.39 1011.98 1011.81 1010.46 1009.83 1010.01 1009.41 1009.37 1007.46 1007.76 1007.57 1007.29 1006.93 1006.59 1006.23 1005.91 1005.38
1018.65 1018.00 1017.34 1016.79 1016.36 1015.99 1015.65 1015.29 1014.99 1014.97 1015.11 1015.06 1014.81 1014.25 1013.20 1012.95 1012.73 1012.41 1012.50 1012.20 1012.25 1012.35 1012.43 1012.51 1012.46 1012.61 1012.64 1012.31 1011.90 1011.82 1010.77 1010.17 1009.22 1009.57 1009.15 1008.88 1007.09 1007.03 1007.02 1006.75 1006.31 1006.01 1005.63 1005.38 1004.92
1018.59 1017.88 1017.22 1016.69 1016.17 1015.83 1015.50 1015.28 1015.17 1015.09 1015.04 1014.88 1014.63 1014.38 1012.90 1013.07 1012.81 1012.39 1012.36 1012.40 1012.24 1012.13 1012.06 1012.50 1012.70 1012.56 1012.44 1012.34 1011.33 1010.72 1010.35 1009.94 1009.06 1008.79 1008.69 1007.82 1006.64 1006.41 1005.98 1005.90 1005.47 1005.23 1005.01 1004.76 1004.46
1018.54 1017.83 1017.19 1016.56 1015.96 1015.62 1015.31 1015.24 1015.52 1015.19 1014.64 1014.94 1014.70 1014.17 1013.51 1013.04 1012.76 1012.39 1012.18 1012.23 1012.24 1012.20 1012.22 1012.65 1012.58 1011.96 1011.77 1012.40 1012.26 1011.83 1011.03 1009.87 1008.92 1008.97 1008.45 1007.39 1006.13 1005.37 1005.30 1004.75 1004.55 1004.22 1004.05 1004.03 1003.77
1018.47 1017.76 1017.12 1016.45 1015.89 1015.57 1015.34 1015.31 1015.81 1015.95 1015.21 1014.57 1014.46 1014.02 1013.56 1013.36 1012.92 1012.46 1012.14 1012.26 1012.34 1012.26 1012.42 1012.62 1012.07 1012.04 1012.46 1012.26 1011.92 1011.52 1010.81 1009.48 1008.76 1008.63 1008.50 1007.08 1004.99 1004.22 1004.42 1003.69 1003.42 1003.04 1002.74 1002.75 1002.87
1018.54 1017.70 1016.96 1016.35 1015.86 1015.63 1015.71 1015.75 1015.69 1015.65 1015.32 1014.35 1013.86 1013.43 1013.22 1013.31 1012.95 1012.72 1012.60 1012.50 1012.43 1012.37 1012.66 1012.77 1012.04 1012.26 1012.13 1011.79 1011.34 1011.11 1010.62 1009.81 1009.31 1008.67 1008.05 1006.96 1003.86 1003.57 1002.70 1002.45 1001.97 1001.60 1001.56 1001.59 1001.63
1018.46 1017.64 1016.83 1016.18 1016.04 1016.14 1015.69 1015.58 1015.60 1015.46 1014.90 1014.29 1013.44 1013.10 1012.94 1012.90 1012.93 1012.71 1012.69 1012.92 1012.62 1012.77 1012.86 1012.65 1012.33 1012.12 1011.76 1011.40 1011.23 1010.54 1010.57 1010.33 1009.77 1009.11 1007.86 1007.55 1002.97 1002.81 1001.93 1001.11 1000.81 1000.44 1000.29 1000.41 1000.76
1018.39 1017.58 1016.91 1016.11 1016.30 1015.88 1015.68 1015.48 1015.20 1015.30 1014.74 1014.06 1013.26 1012.98 1013.15 1013.11 1012.80 1012.43 1012.70 1012.66 1012.79 1012.96 1013.41 1012.36 1012.22 1011.70 1011.46 1011.08 1011.21 1010.74 1010.73 1010.42 1010.01 1009.16 1008.40 1007.05 1005.57 1001.79 1001.12 1000.32 999.66 999.30 999.61 999.98 1000.23
1018.14 1017.41 1016.86 1016.45 1016.32 1015.73 1015.76 1015.47 1015.06 1015.10 1014.42 1013.93 1013.42 1013.25 1013.15 1013.13 1013.07 1012.66 1012.78 1012.93 1013.14 1013.13 1013.05 1012.62 1012.39 1012.17 1011.36 1011.21 1011.16 1010.93 1010.69 1010.29 1009.44 1009.25 1008.13 1005.76 1004.86 1001.47 1000.49 999.86 999.18 999.22 999.70 1000.02 1000.12
1018.06 1017.20 1016.73 1016.50 1016.19 1015.81 1015.72 1015.40 1015.33 1014.95 1015.05 1014.43 1014.08 1013.79 1013.74 1013.44 1013.38 1013.20 1013.20 1013.06 1013.39 1013.35 1012.64 1012.27 1011.86 1011.64 1011.59 1011.25 1011.06 1011.23 1011.29 1010.18 1009.40 1009.15 1007.06 1005.96 1004.48 1001.84 1000.70 999.93 999.79 999.55 999.92 1000.13 1000.20
1017.80 1017.01 1016.52 1016.19 1016.00 1015.82 1015.45 1015.40 1015.53 1015.60 1015.29 1015.03 1014.64 1014.44 1014.31 1014.13 1013.58 1013.66 1013.51 1013.21 1013.34 1013.81 1013.44 1012.47 1010.98 1011.65 1011.44 1011.57 1011.29 1010.98 1011.88 1011.67 1009.96 1008.57 1006.84 1005.93 1003.53 1000.96 1000.52 1000.23 1000.05 999.89 1000.06 1000.48 1000.49
1017.60 1016.72 1016.27 1015.89 1015.80 1015.65 1015.42 1015.72 1016.03 1016.00 1016.04 1015.77 1015.31 1014.82 1014.71 1014.70 1014.92 1014.36 1013.81 1013.59 1013.49 1013.75 1013.94 1013.07 1011.77 1011.47 1011.29 1010.96 1011.40 1011.40 1011.60 1011.60 1010.94 1009.36 1007.94 1005.16 1003.07 1001.83 1000.00 999.76 1000.02 1000.09 1000.10 1000.50 1000.96
1018.65 1017.50 1016.47 1016.00 1015.73 1015.52 1015.92 1016.82 1016.72 1016.62 1016.54 1016.29 1015.83 1015.37 1014.98 1015.06 1015.24 1015.14 1014.25 1013.62 1013.54 1013.77 1014.07 1013.76 1012.21 1011.33 1011.06 1010.95 1010.44 1011.00 1011.70 1011.95 1011.59 1009.40 1006.93 1004.37 1002.82 1001.06 1000.07 999.73 1000.31 1000.50 1000.72 1001.15 1001.41
1018.56 1017.62 1016.48 1016.02 1015.73 1016.24 1017.19 1017.60 1017.31 1016.77 1016.70 1016.50 1016.06 1015.83 1015.83 1016.01 1016.00 1015.62 1014.62 1013.85 1013.68 1013.75 1014.19 1014.25 1014.29 1011.84 1011.46 1010.30 1009.93 1010.76 1011.44 1011.59 1011.16 1009.73 1007.20 1004.35 1002.17 1001.08 1000.21 999.97 1000.27 1000.72 1001.05 1001.46 1001.55
1019.47 1018.13 1017.08 1016.26 1016.90 1018.50 1018.65 1018.95 1018.51 1017.52 1017.26 1016.78 1016.56 1016.53 1016.51 1016.61 1016.20 1016.01 1015.03 1014.64 1014.08 1014.37 1014.28 1014.34 1014.02 1012.32 1010.77 1009.56 1009.67 1009.93 1010.32 1010.64 1010.62 1009.13 1007.28 1005.07 1002.31 1001.69 1000.62 1000.21 1000.51 1001.14 1001.52 1001.89 1002.11
1020.67 1019.71 1017.86 1017.32 1018.56 1019.50 1019.75 1019.53 1019.17 1018.37 1018.09 1017.71 1017.51 1017.36 1017.49 1017.36 1017.00 1016.07 1015.22 1014.73 1014.77 1014.79 1014.59 1014.54 1014.08 1012.47 1010.17 1009.52 1009.75 1009.67 1009.47 1009.72 1009.81 1009.12 1006.73 1005.60 1001.90 1002.12 1001.50 1000.96 1001.04 1001.17 1001.32 1001.55 1001.67
1021.20 1020.39 1019.71 1019.44 1020.55 1020.50 1020.62 1020.06 1019.39 1018.67 1018.23 1018.11 1017.97 1017.73 1017.97 1017.76 1017.57 1016.12 1015.39 1014.88 1014.90 1014.74 1014.60 1014.18 1013.82 1013.11 1011.77 1010.16 1010.04 1009.28 1008.90 1008.92 1009.03 1008.04 1006.20 1004.64 1002.03 1002.42 1001.80 1001.13 1000.96 1000.89 1000.83 1001.11 1001.07
1022.03 1022.17 1022.16 1021.18 1020.79 1021.04 1020.86 1020.53 1019.98 1019.41 1019.03 1018.75 1018.08 1018.00 1018.59 1017.90 1017.25 1016.03 1015.59 1014.84 1014.66 1014.30 1014.23 1014.18 1013.28 1012.26 1011.23 1010.21 1009.51 1008.54 1008.06 1007.58 1007.60 1007.28 1006.28 1004.06 1002.93 1002.32 1001.95 1001.71 1001.51 1001.66 1001.30 1000.87 1000.65
1023.24 1023.21 1022.77 1022.26 1021.88 1021.36 1020.84 1020.39 1020.13 1019.93 1019.98 1019.24 1018.98 1018.73 1018.51 1018.16 1017.78 1015.62 1015.52 1014.80 1014.47 1013.85 1014.20 1014.15 1012.87 1011.78 1010.44 1009.40 1008.48 1006.91 1006.65 1007.13 1007.02 1006.58 1005.90 1004.52 1002.80 1002.74 1002.09 1002.26 1001.75 1001.48 1001.28 1000.47 1000.09
1023.80 1023.69 1023.34 1022.61 1022.32 1021.86 1021.11 1020.59 1020.40 1020.44 1019.54 1019.25 1019.20 1018.81 1018.12 1017.19 1016.58 1015.67 1014.49 1013.82 1013.98 1013.94 1013.91 1013.91 1012.97 1011.79 1009.26 1008.34 1007.58 1006.27 1006.08 1007.06 1006.74 1006.37 1006.06 1004.55 1002.72 1003.07 1002.58 1002.43 1001.96 1001.51 1000.76 1000.11 999.84
Wind_Speed
17 15 13 11 9 8 9 9 10 11 12 12 12 12 13 14 11 2 7 3 4 10 7 0 5 4 3 4 3 1 2 3 2 4 1 7 9 6 8 10 10 7 11 7 1
19 17 15 13 11 10 9 10 10 11 12 12 12 12 11 10 2 8 2 3 6 10 6 10 7 6 5 4 4 2 1 2 1 4 5 8 8 11 7 7 9 13 12 8 3
21 19 16 13 11 10 10 10 10 11 12 12 12 12 10 4 1 5 4 5 3 5 2 1 2 3 5 2 3 1 2 1 7 4 3 11 13 5 9 8 8 12 10 7 6
21 21 18 15 13 11 9 10 10 10 11 11 12 12 9 3 4 2 4 4 3 3 2 6 7 3 2 4 0 5 4 4 5 13 12 14 11 11 15 15 13 11 11 13 11
21 22 20 17 15 13 11 10 10 10 9 10 11 11 3 5 4 2 6 3 2 3 3 3 6 1 5 2 3 4 3 7 13 16 14 15 17 18 16 18 15 14 13 14 15
23 23 21 18 15 13 12 11 10 11 10 8 9 9 1 10 1 1 3 0 1 2 1 1 3 2 1 3 3 3 10 15 12 12 8 8 12 4 12 12 9 9 11 13 16
22 22 22 19 16 14 12 11 10 9 8 6 7 3 1 4 1 1 2 2 3 2 4 1 1 3 2 6 1 7 10 12 5 4 11 3 9 8 9 9 14 12 12 11 11
23 22 21 19 16 13 12 12 11 6 4 4 4 1 3 1 2 5 2 5 6 7 5 6 4 3 3 2 4 8 4 11 10 13 6 8 20 9 15 5 11 16 12 11 16
26 24 23 19 17 15 13 10 2 3 2 2 1 3 3 1 2 4 4 6 1 1 2 2 0 2 2 7 11 5 15 20 21 6 14 11 19 14 14 18 17 14 15 13 14
27 24 24 21 19 13 11 1 3 2 1 2 1 2 2 5 4 7 2 3 2 5 0 2 2 6 6 8 16 23 23 22 24 21 21 24 26 23 21 17 17 16 15 13 13
27 26 24 22 17 12 1 2 2 2 4 3 3 2 5 6 2 8 4 2 1 1 4 3 7 14 18 13 14 16 20 25 26 22 25 24 27 25 21 20 19 18 16 16 15
27 26 25 20 16 5 2 5 2 2 4 1 2 4 5 2 2 8 5 9 4 6 8 9 13 11 6 14 16 16 20 26 24 18 17 22 29 27 20 25 22 23 22 19 17
28 26 25 20 12 3 3 5 4 4 1 4 2 2 3 1 1 3 5 5 8 8 12 10 13 11 12 19 19 14 16 18 19 19 17 20 32 24 21 19 19 21 21 20 19
29 28 23 21 1 2 2 2 6 4 1 3 1 1 2 1 2 3 1 4 7 10 7 7 4 10 17 18 11 13 6 9 17 16 13 9 21 18 20 20 17 17 17 17 18
29 28 19 8 1 0 4 8 3 3 3 5 1 2 4 5 7 4 0 2 11 15 5 6 11 19 20 11 9 12 10 16 17 18 17 19 14 9 10 14 18 15 12 12 14
30 26 17 2 1 2 7 2 1 2 2 2 2 8 11 8 3 4 4 1 3 4 6 14 13 10 9 13 12 9 14 21 14 8 9 18 17 11 8 8 9 3 4 2 6
31 26 6 2 5 6 4 0 2 3 3 2 5 9 10 4 4 5 13 12 6 6 11 17 3 6 6 12 14 8 13 7 4 3 7 3 10 14 20 19 14 13 12 5 2
31 16 1 0 8 3 1 2 2 3 3 6 6 15 5 8 7 9 8 11 2 3 7 9 15 7 2 21 16 21 8 5 8 6 12 11 11 5 9 12 13 13 8 1 4
23 3 2 9 5 2 2 2 2 1 3 8 12 4 2 4 7 7 10 7 3 5 5 11 12 23 21 13 3 2 6 2 7 12 8 7 9 17 8 7 3 8 6 5 7
5 3 5 14 5 2 3 1 2 2 6 4 5 2 6 11 5 10 6 3 3 5 4 5 21 8 7 17 8 13 2 5 4 6 7 7 11 11 17 12 2 5 8 8 7
2 1 7 13 1 6 3 3 5 5 5 3 5 9 6 6 7 8 6 10 4 8 2 10 4 12 17 8 16 6 4 6 4 6 7 11 8 6 14 12 8 10 5 6 7
4 2 8 9 5 3 2 7 6 5 4 5 4 5 2 10 5 6 7 4 9 5 11 3 5 13 21 22 12 14 15 10 6 7 8 10 12 17 18 15 6 5 5 7 8
3 3 4 5 4 3 4 4 4 5 8 5 6 4 6 3 7 5 14 4 15 11 6 7 4 9 9 3 3 9 10 14 14 14 22 17 14 3 10 11 12 11 12 12 11
3 4 4 5 2 2 3 3 6 6 6 4 10 6 7 6 8 12 23 10 6 14 25 14 6 13 12 22 21 21 26 24 18 10 18 21 29 24 24 27 26 26 21 20 18
4 2 2 5 2 4 2 2 5 5 6 12 4 6 11 9 22 18 8 22 18 18 3 5 9 16 19 22 24 28 29 29 21 23 20 26 30 27 25 24 19 19 23 24 23
4 4 4 5 5 4 1 2 5 4 8 13 16 12 18 18 17 26 21 19 11 7 6 6 8 15 21 23 23 29 24 18 18 19 19 27 28 25 19 16 19 24 28 28 26
1 0 2 2 3 4 2 1 7 15 8 5 15 22 17 17 14 23 25 25 22 22 16 7 4 9 20 18 25 15 6 5 10 14 15 19 27 23 25 24 23 22 24 24 23
Wind_Direction
6 2 355 348 336 330 324 318 321 321 326 331 337 338 332 334 322 324 50 37 351 335 338 172 57 65 68 77 59 145 175 178 196 200 281 338 332 317 300 260 274 252 290 320 297
6 2 358 350 340 332 325 321 319 320 323 330 336 337 331 330 326 56 83 73 21 1 25 29 28 30 65 38 44 24 267 181 283 310 297 314 308 316 300 287 266 268 267 262 248
5 3 357 353 346 339 332 325 319 321 324 331 335 335 327 315 108 37 122 113 62 33 60 46 22 43 70 36 30 90 284 228 285 235 263 301 290 292 284 274 287 293 278 283 260
1 0 356 352 346 342 335 325 319 320 325 328 328 327 326 269 78 37 128 108 43 353 49 28 23 60 81 34 154 279 302 271 281 295 288 280 286 273 270 272 278 285 278 292 263
358 358 354 349 344 340 334 324 318 316 319 322 325 329 301 76 86 28 120 89 27 355 32 44 45 75 6 331 294 210 283 274 281 278 283 270 260 258 268 268 267 268 269 262 261
356 354 352 347 342 340 329 317 314 312 312 317 320 322 290 93 73 335 151 90 317 322 305 300 4 351 257 292 279 270 291 290 286 282 261 277 289 246 244 269 297 286 285 269 265
355 353 350 345 339 338 326 318 313 305 297 308 322 334 92 81 123 47 200 226 190 206 304 19 15 298 328 279 238 292 297 311 221 289 312 255 265 237 269 285 293 278 287 277 270
352 352 347 341 334 329 327 323 311 293 274 280 321 312 91 50 315 279 223 256 226 237 238 282 237 244 233 303 252 300 267 306 302 302 270 304 284 261 291 276 281 289 286 288 294
352 351 348 342 332 333 331 328 347 130 173 294 324 345 60 215 325 319 232 302 303 144 219 116 146 313 235 274 283 263 289 297 302 279 296 270 292 285 277 282 281 275 284 283 288
351 350 350 343 333 331 329 218 76 129 181 208 181 227 54 351 324 318 20 274 322 325 152 87 62 275 248 262 289 300 293 289 285 294 284 281 280 282 276 268 265 270 270 272 273
350 351 350 342 335 331 285 165 354 68 42 13 320 300 316 332 340 6 1 326 14 66 340 6 273 274 304 326 300 295 289 285 284 285 286 282 278 278 279 272 265 266 261 259 257
349 349 347 340 336 340 289 67 59 11 318 35 295 276 262 291 315 11 5 3 338 315 317 297 281 317 291 316 302 293 290 283 283 287 279 284 275 277 276 270 267 263 260 250 251
347 347 347 340 335 331 29 99 342 182 329 315 244 306 349 206 259 283 351 351 333 314 322 284 282 313 310 314 304 303 288 294 296 307 280 278 274 275 271 262 262 256 248 248 241
344 345 344 332 342 333 67 356 328 210 52 360 214 123 317 356 220 252 287 336 334 318 321 287 288 292 307 303 291 294 302 297 302 305 298 337 286 290 285 275 261 251 242 237 230
341 340 339 2 293 39 337 322 130 206 270 353 326 37 342 356 301 224 112 253 309 307 220 292 299 305 307 293 309 289 302 307 299 282 292 259 263 275 286 276 271 266 257 237 238
337 337 335 146 194 340 339 330 211 209 246 12 304 336 330 327 268 295 312 331 308 266 238 274 290 289 276 308 294 295 305 304 289 279 256 277 245 287 294 280 303 326 28 287 238
333 331 324 316 331 335 325 178 296 227 6 338 333 321 325 293 301 307 323 319 314 312 315 322 292 278 283 305 309 277 323 299 251 212 264 334 305 260 279 279 279 294 324 337 297
328 319 204 295 325 309 175 58 252 39 317 339 315 310 287 2 330 325 303 318 251 230 304 330 323 347 238 308 292 288 264 275 297 288 303 294 263 263 278 295 291 296 297 96 28
324 333 31 347 343 292 52 53 343 295 340 315 307 261 257 340 316 329 316 293 256 186 336 320 292 309 294 295 275 320 218 303 272 255 267 239 266 283 307 281 333 37 50 73 51
340 331 18 337 336 54 64 324 293 311 349 300 282 249 289 331 313 339 309 243 255 200 225 305 302 314 322 303 291 242 106 255 205 273 257 253 271 275 289 284 27 44 69 56 36
359 31 347 344 12 49 61 305 290 308 318 275 279 287 292 337 311 305 268 288 244 338 223 309 232 291 308 280 302 268 228 232 276 241 278 281 269 266 276 277 304 346 84 351 339
343 48 349 331 55 41 39 323 313 315 340 298 285 284 323 324 295 282 257 271 314 341 319 329 276 287 289 287 302 258 263 257 253 258 249 283 270 267 270 276 302 332 341 341 317
16 310 340 334 66 22 333 304 286 315 338 332 320 359 321 299 319 255 292 312 302 297 325 328 254 294 292 225 160 257 280 288 270 266 263 273 257 314 275 296 268 283 295 297 296
348 355 8 44 59 71 352 304 315 301 303 350 310 305 333 286 291 286 297 302 336 309 302 293 219 250 273 283 296 289 284 287 271 258 279 265 281 278 271 273 276 279 292 291 287
8 55 39 329 11 338 193 264 292 338 347 318 283 290 341 303 308 277 303 299 295 300 308 277 259 268 269 282 288 280 281 287 275 268 263 277 280 283 283 284 284 285 287 284 281
10 359 353 302 300 294 248 201 293 336 321 300 282 322 322 299 278 294 299 289 292 294 288 266 274 295 287 288 287 290 286 281 275 278 272 270 273 276 292 297 278 278 283 274 273
28 241 281 287 306 298 255 110 308 316 286 309 315 311 294 288 298 289 282 281 271 273 283 264 263 298 292 314 310 286 254 223 266 263 266 276 286 303 289 288 284 282 269 266 266